Вернуться в каталог

DELTA 1 DEB

АктивенSSO
NORAD 7021·DEBRIS·🇺🇸 United States

Запущен Nov 6, 1973 с Vandenberg Space Force Base

Loading…

Ближайшие Пролёты (ближайшие 24 часа)

TLE

СвежийSource: Space-Track

Эпоха: Sep 14, 2026, 14:20 UTC

1 07021U 73086M   26257.59733135  .00000340  00000-0  29414-2 0  9991
2 07021 101.6801 292.2298 0183547  58.5738  94.1022 12.33186549360309

Отслеживайте DELTA 1 DEB в реальном времени с AllMySat

Download on the App Store